This demonstration page uses our WeatherBlox Daily Observations layout. Learn more.

Left ArrowRight Arrow

34.16533, -84.80231

Hourly Observations for April 13, 2016

Temp ( °F °C ) Dew Point ( °F °C ) Humidity (%) Winds ( mph kmh ) Pressure ( in mb ) Visibility ( mi km ) Precip ( " mm )
12:53 am 00:53 Clear 49 9.4 45 7.2 86 86 Calm 30.12 1020 10 16 0.00 0.00
1:53 am 01:53 Clear 47 8.3 45 7.2 93 93 Calm 30.13 1020 10 16 0.00 0.00
2:53 am 02:53 Clear 47 8.3 44 6.7 90 90 Calm 30.13 1020 10 16 0.00 0.00
3:53 am 03:53 Clear 44 6.7 43 6.1 96 96 Calm 30.12 1020 10 16 0.00 0.00
4:53 am 04:53 Mostly Clear 44 6.7 43 6.1 96 96 Calm 30.11 1020 10 16 0.00 0.00
5:53 am 05:53 Partly Cloudy 45 7.2 43 6.1 93 93 Calm 30.13 1020 10 16 0.00 0.00
6:03 am 06:03 Mostly Cloudy 45 7.2 43 6.1 93 93 Calm 30.15 1021 10 16 0.00 0.00
6:45 am 06:45 Cloudy 45 7.2 44 6.7 97 97 Calm 30.18 1022 10 16 0.00 0.00
6:53 am 06:53 Mostly Cloudy 46 7.8 44 6.7 93 93 Calm 30.15 1021 10 16 0.00 0.00
7:53 am 07:53 Mostly Sunny 46 7.8 45 7.2 96 96 Calm 30.16 1021 10 16 0.00 0.00
8:53 am 08:53 Mostly Cloudy 56 13.3 41 5 57 57 VRB 6 9 30.15 1021 10 16 0.00 0.00
9:53 am 09:53 Mostly Cloudy 60 15.6 44 6.7 56 56 VRB 7 11 30.16 1022 10 16 0.00 0.00
10:53 am 10:53 Mostly Cloudy 62 16.7 44 6.7 52 52 ESE 13 20 30.18 1022 10 16 0.00 0.00
11:53 am 11:53 Mostly Cloudy 65 18.3 47 8.3 52 52 E 10 17 30.19 1022 10 16 0.00 0.00
12:53 pm 12:53 Cloudy 64 17.8 48 8.9 56 56 ESE 7 11 30.19 1022 10 16 0.00 0.00
1:53 pm 13:53 Cloudy 66 18.9 51 10.6 59 59 SE 14 22 30.16 1022 10 16 0.00 0.00
2:53 pm 14:53 Mostly Sunny 66 18.9 52 11.1 61 61 ESE 9 15 30.15 1021 10 16 0.00 0.00
3:53 pm 15:53 Cloudy 64 17.8 52 11.1 65 65 SE 7 11 30.16 1021 10 16 0.00 0.00
4:53 pm 16:53 Cloudy 64 17.8 52 11.1 65 65 SE 6 9 30.14 1021 10 16 0.00 0.00
5:53 pm 17:53 Mostly Cloudy 64 17.8 52 11.1 65 65 ESE 7 11 30.11 1020 10 16 0.00 0.00
6:53 pm 18:53 Mostly Cloudy 64 17.8 51 10.6 63 63 ESE 5 7 30.11 1020 10 16 0.00 0.00
7:53 pm 19:53 Cloudy 63 17.2 51 10.6 65 65 SE 6 9 30.11 1020 10 16 0.00 0.00
8:53 pm 20:53 Cloudy 61 16.1 52 11.1 72 72 VRB 3 6 30.12 1020 10 16 0.00 0.00
9:53 pm 21:53 Mostly Cloudy 59 15 54 12.2 83 83 Calm 30.13 1020 10 16 0.00 0.03
10:53 pm 22:53 Cloudy 59 15 53 11.7 81 81 Calm 30.13 1020 10 16 0.00 0.00
11:53 pm 23:53 Cloudy 59 15 53 11.7 81 81 ESE 3 6 30.12 1020 10 16 0.00 0.00

Powered by AerisWeather